BEIDOU-3 M8 (C30)

Last updated on Jan. 24, 2021, 6:19 a.m. UTC

1 43246U 18029B   21023.54886542 -.00000078  00000-0  10000-3 0  9999
2 43246  55.3197   7.9058 0004999 329.9931 215.8364  1.86232816 19182
UTC
Height (km)
Latitude
Longitude
Inclination
Orbital Period
UTC large
Height (km)
Speed (km/s)
/
Latitude / Longitude
Inclination (degrees)
Orbital Period (minutes)
Azimuth
Elevation
Range (km)
Doppler Factor
iOS Compass Heading
iOS Angle

Next 30 passes for location: Hong Kong

Rise time Rise Azimuth (degrees) Set time Set Azimuth (degrees) Duration Max altitude (degrees)

No matching passes for this satellites